FENGYUN 1C DEB

Satellite information

Favourite Embed

Satellite Type and Status

DEBRISIN ORBIT

Key statistics

Satellite FENGYUN 1C DEB at a glance.

Uptime

9615

Days in orbit

Revolutions

≈ 14.1

Per day

Orbit

SSO

Sun Synchronous Orbit

Inclination

98.8

Latest

Satellite identification and parameters

Extended collection of information and parameters for FENGYUN 1C DEB.

Object identification

Identified? True

Debris? True

Object name: FENGYUN 1C DEB

International designator: 1999-025JX

Object number (NORAD): 29949

Object ID (CCSDS): 29949

Country: PEOPLES REPUBLIC OF CHINA (PRC)

Current information (Y/N): Y

RCS size: MEDIUM

Orbital parameters

Period: 102.36 minutes

Inclination: 98.7708 deg

SMA: 7248.474 km

Apoapsis: 887.275 km

Periapsis: 853.402 km

RAAN: 265.7489 deg

Eccentricy: 0.00233661

Argument of periapsis: 222.92 deg

Mean anomaly: 201.7803 deg

Mean motion: 14.06801828 rev/day

Mean motion (dot): 0.00000246 rev/day2

B* drag term: 0.00017323368 1/REarth

Two-line elements (TLE)

Creation date: Sept. 4, 2025, 10:13 a.m.

Reference frame: TEME

Reference center: EARTH

Epoch: Sept. 4, 2025, 12:02 a.m. UTC

TLE line 0: 0 FENGYUN 1C DEB

TLE line 1: 1 29949U 99025JX 25247.00171368 .00000246 00000-0 17323-3 0 9995

TLE line 2: 2 29949 98.7708 265.7489 0023366 222.9200 201.7803 14.06801828957057

Live tracking on map

Real-time ground track for satellite FENGYUN 1C DEB.

In-orbit conjunctions

A list of the most updated potential collisions computed for object FENGYUN 1C DEB.

Target Orbit TCA Probability of collision Miss distance Type
FENGYUN 1C DEB SSO 2025-05-11 18:57:02 0.0004334558 28.0 (m) DEBRIS
FENGYUN 1C DEB SSO 2024-12-27 17:48:47 0.0002688019 55.0 (m) DEBRIS
ARIANE 1 DEB SSO 2024-11-13 06:24:49 0.0004219649 373.0 (m) DEBRIS

Associated space launch

Chinese polar orbiting meteorological satellite

FENGYUN 1C DEB was lifted into orbit during the mission ‘Long March 4B | Feng Yun 1C’, on board a Long March 4B space rocket.

The launch took place on May 10, 1999, 1:33 a.m. from Launch Complex 7.

For more information about the launch, click the button.

Launch to space Long March 4B | Feng Yun 1C
Long March 4B | Feng Yun 1C

Agency: N/A

Status: Launch Successful

Launch date: May 10, 1999, 1:33 a.m. UTC

Rocket: Long March 4B

Launch pad: Launch Complex 7

Location: Taiyuan Satellite Launch Center, People's Republic of China

...

Latest news about this satellite

There are no fresh news available about this satellite. Check back as we update our databases every day.


Newsletter sign-up

Weekly statistics, charts and insights to help you stay on top of the space industry.